Temp
36 36 35 35 35 35 34 34 34 34 34 33 34 34 34 34 35 35 35 36 35 36 37 37 38 39 39 40 42 43 44 45 41 41 35 33 34 34 35 36 38 40 41
35 35 34 35 34 32 31 33 33 32 33 32 32 33 33 34 35 34 33 35 34 34 35 36 36 39 37 38 38 39 43 44 42 39 33 33 34 33 33 34 33 33 35
33 32 32 31 29 26 27 31 32 31 31 32 33 32 32 33 33 33 34 33 34 34 35 36 35 37 36 36 37 37 40 43 43 38 35 33 32 33 33 34 33 33 33
30 30 28 27 28 27 27 29 31 31 31 32 33 33 33 33 33 33 33 33 33 33 35 35 36 35 35 35 36 36 38 39 38 36 34 33 32 33 33 33 32 31 32
25 23 22 24 25 25 24 29 31 32 32 33 32 33 33 33 33 34 35 34 33 33 34 34 35 35 35 36 37 37 38 36 36 38 33 32 31 30 32 34 29 30 29
19 18 21 19 22 22 22 28 32 32 32 33 31 32 33 33 37 37 37 33 33 33 33 33 34 33 35 37 37 39 39 36 36 36 35 34 31 31 32 33 31 31 27
17 18 17 16 18 20 22 31 32 31 32 31 31 31 32 33 37 36 34 33 33 33 33 33 33 34 34 35 37 38 39 39 41 38 37 35 33 33 33 30 32 27 24
15 17 17 14 14 17 18 25 31 32 31 31 30 29 29 33 37 36 34 30 31 31 32 32 33 34 35 34 34 32 32 32 35 36 39 34 33 34 34 34 27 24 25
16 18 16 13 13 14 17 17 20 29 28 30 30 29 28 30 36 36 33 31 31 31 32 32 32 32 34 37 32 31 31 32 37 37 37 37 37 35 31 30 27 26 23
19 20 15 13 13 14 16 17 18 20 24 27 27 22 27 28 34 35 33 31 29 30 31 32 33 33 34 34 31 30 28 28 29 30 30 31 32 33 33 31 30 27 22
20 17 15 15 16 17 21 21 21 20 22 21 24 23 22 24 28 34 34 28 27 28 29 29 31 33 33 33 31 28 27 27 26 25 24 23 22 22 22 24 27 28 24
22 20 18 18 21 23 23 25 24 24 24 22 22 23 24 24 30 32 32 32 30 25 25 26 29 32 32 31 29 30 29 26 24 21 20 18 17 16 16 16 18 18 19
22 20 17 21 24 24 24 25 24 24 23 23 23 21 23 24 24 30 31 30 29 25 27 29 29 28 27 27 28 28 25 22 20 17 15 14 15 16 17 16 15 15 14
22 20 21 22 23 23 26 26 23 20 20 22 21 20 20 21 23 24 24 21 24 23 24 20 27 26 27 23 21 21 19 18 17 16 15 16 17 16 17 16 15 16 14
23 22 23 23 21 23 24 23 24 24 23 18 16 18 15 15 23 30 27 21 17 25 12 12 16 15 16 15 15 15 16 17 16 15 15 14 14 14 14 14 13 13 11
23 23 23 22 21 21 22 20 31 32 33 33 33 27 22 31 32 32 32 33 32 31 11 7 10 10 10 7 8 9 11 11 11 12 12 12 11 11 11 11 13 12 13
27 25 24 23 22 22 21 21 19 22 32 32 32 32 32 32 33 32 32 32 31 24 6 6 5 6 5 4 5 3 2 2 2 7 7 7 8 6 5 7 10 11 8
28 25 26 26 25 23 22 21 19 18 16 17 27 28 29 31 32 31 32 28 13 14 6 5 4 4 4 4 2 1 0 2 3 4 4 2 0 4 2 2 3 2 3
27 28 27 25 25 25 23 21 20 18 16 15 13 22 22 30 30 31 30 13 11 10 9 8 6 5 6 4 3 2 1 1 1 0 -1 -0 0 0 -1 -0 1 3 1
27 28 27 27 26 24 23 20 18 18 16 16 15 17 12 13 13 12 11 10 10 9 9 8 9 9 8 7 5 3 2 1 0 0 -0 -0 -1 -0 -1 -1 -1 -2 -3
27 27 26 26 25 24 23 22 22 18 19 18 18 16 25 15 14 14 14 11 10 12 18 14 23 22 20 20 11 6 3 3 1 1 0 -0 -2 -1 -2 -0 -2 -3 -3
26 26 25 26 24 22 23 22 22 21 19 18 15 18 32 16 15 16 21 21 25 24 25 23 22 21 20 13 9 7 7 6 7 2 2 1 -0 -1 -1 -1 -1 -1 0
20 22 20 16 19 19 18 19 21 21 19 18 15 14 14 14 16 22 26 27 26 24 20 20 18 14 11 9 10 10 10 8 9 7 4 3 3 3 3 3 5 6 8
24 24 18 15 17 16 18 19 19 16 17 17 19 17 18 19 20 24 26 24 20 17 15 13 11 8 7 8 10 12 12 11 11 11 11 12 11 12 12 11 11 11 11
26 25 23 18 13 14 16 16 19 18 17 17 14 13 15 16 18 19 17 16 16 14 13 13 12 10 8 8 7 7 9 12 11 12 11 11 11 11 11 10 9 8 9
19 20 20 19 14 13 16 19 21 20 15 14 15 16 16 15 14 14 14 14 13 13 13 13 12 12 12 12 12 14 15 16 12 15 11 12 11 10 10 10 10 8 8
MSLP
1014.25 1014.27 1014.31 1014.28 1014.21 1014.03 1013.83 1013.57 1013.20 1012.77 1012.35 1011.83 1011.32 1010.78 1010.26 1009.70 1009.21 1008.74 1008.27 1007.89 1007.41 1007.08 1006.98 1006.68 1006.40 1006.57 1006.30 1006.32 1006.15 1005.81 1005.47 1005.15 1004.67 1004.56 1004.92 1004.88 1004.97 1004.35 1004.01 1004.14 1004.69 1004.59 1004.92
1014.19 1014.18 1014.23 1014.25 1014.17 1013.98 1013.71 1013.28 1012.87 1012.39 1011.97 1011.48 1010.80 1010.12 1009.50 1008.89 1008.32 1007.78 1007.23 1006.78 1006.39 1006.00 1005.94 1005.79 1005.58 1005.77 1005.59 1005.70 1005.63 1005.57 1004.77 1004.42 1004.71 1004.33 1004.81 1005.27 1004.88 1005.01 1004.62 1004.49 1005.51 1005.55 1005.38
1014.09 1014.12 1014.30 1014.39 1014.19 1013.96 1013.52 1013.01 1012.53 1012.05 1011.53 1010.92 1010.24 1009.56 1008.88 1008.23 1007.57 1006.93 1006.28 1005.70 1005.28 1005.10 1004.98 1004.64 1004.83 1005.05 1004.91 1005.01 1004.97 1004.72 1004.23 1003.86 1004.11 1004.08 1004.00 1004.71 1004.91 1005.40 1005.45 1005.19 1005.87 1005.90 1006.17
1013.99 1014.25 1014.45 1014.42 1014.03 1013.72 1013.30 1012.92 1012.29 1011.70 1011.04 1010.43 1009.79 1009.15 1008.32 1007.51 1006.73 1005.97 1005.21 1004.54 1004.10 1004.03 1004.00 1003.96 1004.08 1004.28 1004.37 1004.34 1004.11 1003.76 1003.90 1003.37 1003.29 1003.55 1003.68 1004.00 1004.54 1005.26 1005.14 1005.23 1006.07 1006.77 1006.62
1014.22 1014.47 1014.54 1014.24 1013.81 1013.51 1013.13 1012.73 1012.10 1011.45 1010.74 1010.04 1009.43 1008.68 1007.84 1006.93 1006.10 1005.01 1003.89 1003.20 1003.30 1003.50 1003.58 1003.57 1003.53 1003.46 1003.61 1003.68 1003.61 1003.16 1002.99 1002.73 1002.84 1002.97 1003.39 1003.50 1003.93 1004.20 1004.46 1004.95 1006.53 1006.89 1007.68
1014.35 1014.45 1014.56 1014.50 1014.05 1013.55 1013.16 1012.63 1012.02 1011.41 1010.66 1009.93 1009.29 1008.45 1007.44 1006.55 1005.48 1004.41 1003.11 1002.83 1003.07 1003.17 1003.15 1003.10 1002.99 1003.01 1002.95 1002.77 1002.87 1002.65 1002.46 1002.32 1002.44 1002.47 1002.60 1003.01 1003.50 1003.81 1004.54 1005.02 1005.79 1006.92 1007.90
1014.25 1014.29 1014.32 1014.38 1014.35 1013.76 1013.28 1012.50 1011.87 1011.38 1010.54 1009.96 1009.32 1008.55 1007.53 1006.52 1005.33 1004.47 1003.83 1003.17 1003.06 1002.93 1002.77 1002.51 1002.31 1002.21 1002.24 1002.25 1001.92 1001.86 1001.69 1001.67 1001.67 1001.90 1002.00 1002.30 1002.52 1002.73 1003.59 1004.73 1005.23 1006.54 1007.80
1014.11 1014.28 1013.97 1014.17 1014.26 1013.78 1013.32 1012.70 1012.02 1011.33 1010.69 1010.01 1009.59 1009.04 1008.06 1006.80 1005.72 1004.93 1004.38 1004.03 1003.61 1003.17 1002.71 1002.21 1001.70 1001.50 1001.50 1001.61 1001.68 1001.59 1001.43 1001.27 1000.95 1000.70 1001.04 1001.65 1001.83 1002.28 1002.79 1003.44 1005.37 1007.07 1008.30
1013.76 1013.88 1013.78 1013.67 1013.96 1013.63 1013.10 1012.52 1012.02 1011.52 1010.91 1010.24 1009.85 1009.55 1008.72 1007.69 1006.39 1005.51 1005.02 1004.58 1004.06 1003.53 1002.97 1002.40 1001.85 1001.40 1000.99 1000.60 1001.27 1001.50 1001.53 1001.40 1001.17 1001.33 1001.34 1001.59 1001.83 1002.28 1002.90 1004.08 1005.70 1006.53 1008.77
1013.10 1013.20 1013.48 1013.15 1013.55 1013.50 1013.06 1012.48 1012.09 1011.76 1011.27 1010.57 1010.18 1009.73 1009.29 1008.54 1007.42 1006.37 1005.73 1005.27 1004.84 1004.36 1003.76 1003.13 1002.66 1002.23 1001.93 1001.74 1001.73 1001.85 1002.05 1002.62 1002.46 1001.96 1002.63 1002.99 1003.40 1003.80 1004.12 1004.38 1005.02 1006.22 1007.92
1012.13 1012.59 1013.08 1012.65 1012.99 1012.92 1012.94 1012.15 1012.08 1011.84 1011.32 1010.91 1010.55 1010.10 1009.61 1009.13 1008.38 1007.35 1006.69 1006.40 1006.01 1005.49 1004.98 1004.52 1004.00 1003.36 1002.96 1002.76 1003.01 1003.15 1003.30 1003.61 1003.43 1003.49 1003.97 1004.31 1004.75 1005.51 1005.65 1005.78 1006.30 1006.86 1007.91
1011.56 1011.91 1012.52 1012.51 1012.27 1012.26 1012.59 1012.22 1011.78 1011.72 1011.43 1011.13 1010.72 1010.29 1009.90 1009.45 1008.88 1008.38 1007.92 1007.42 1007.10 1006.74 1006.49 1006.20 1005.61 1004.84 1004.38 1004.17 1004.22 1004.40 1004.48 1004.69 1004.95 1005.29 1005.71 1006.46 1006.86 1007.39 1007.67 1007.87 1007.84 1008.33 1008.54
1011.04 1011.29 1011.77 1012.04 1011.83 1011.61 1011.76 1011.89 1011.78 1011.46 1011.24 1011.29 1011.11 1010.85 1010.47 1010.09 1009.55 1009.05 1008.65 1008.32 1008.04 1007.74 1007.45 1007.11 1006.72 1006.33 1006.00 1005.73 1005.71 1005.68 1005.80 1006.06 1006.47 1006.88 1007.45 1007.98 1008.32 1008.65 1008.72 1008.61 1009.42 1009.88 1009.86
1010.25 1010.76 1011.06 1011.28 1011.24 1011.34 1011.57 1011.47 1011.32 1011.34 1011.45 1011.31 1011.38 1011.24 1010.73 1010.25 1009.93 1009.60 1009.40 1009.08 1008.66 1008.38 1008.25 1008.00 1007.66 1007.38 1007.08 1007.21 1007.15 1007.36 1007.54 1007.66 1007.91 1008.14 1008.50 1008.95 1009.12 1009.17 1009.24 1009.64 1010.59 1010.77 1010.95
1009.54 1009.72 1010.38 1010.75 1010.83 1010.82 1010.70 1010.94 1011.21 1011.22 1010.93 1011.00 1010.94 1010.86 1010.95 1010.62 1010.08 1009.76 1009.53 1009.38 1009.06 1008.86 1008.89 1008.84 1008.89 1008.93 1008.94 1008.95 1008.91 1008.89 1008.87 1008.93 1009.22 1009.50 1009.72 1009.91 1010.04 1010.09 1010.38 1010.45 1010.79 1011.09 1011.77
1008.78 1009.09 1009.23 1009.87 1010.39 1010.55 1010.67 1010.72 1010.53 1010.60 1010.79 1010.76 1010.62 1010.49 1010.39 1010.13 1009.95 1009.79 1009.63 1009.40 1009.28 1009.21 1009.87 1010.41 1010.54 1010.34 1010.37 1010.39 1010.43 1010.50 1010.38 1010.44 1010.66 1010.69 1010.85 1010.94 1011.07 1011.12 1011.17 1011.18 1011.23 1011.69 1012.26
1007.16 1007.83 1008.22 1008.78 1009.54 1010.10 1010.32 1010.53 1010.70 1010.72 1010.48 1010.38 1010.21 1010.22 1010.27 1010.24 1010.05 1009.97 1009.85 1009.77 1009.69 1009.72 1010.44 1011.07 1011.55 1011.38 1011.30 1011.06 1010.96 1010.98 1011.31 1011.38 1010.80 1011.09 1011.22 1011.49 1011.74 1012.02 1012.17 1012.34 1012.43 1012.64 1013.47
1006.00 1006.40 1007.02 1007.46 1008.18 1009.00 1009.39 1009.62 1009.84 1010.38 1010.51 1010.43 1010.15 1010.28 1010.19 1009.97 1009.94 1010.00 1009.95 1009.93 1010.31 1010.58 1010.92 1011.37 1011.54 1011.40 1011.46 1011.63 1011.86 1011.90 1011.84 1011.79 1011.63 1011.78 1012.00 1012.19 1012.39 1012.49 1012.82 1013.17 1013.30 1013.83 1014.29
1005.18 1005.56 1005.96 1006.48 1007.05 1007.71 1008.45 1008.89 1009.07 1009.34 1009.83 1009.88 1010.08 1009.97 1010.03 1010.02 1010.00 1009.95 1010.07 1010.60 1010.77 1010.90 1010.94 1011.22 1011.51 1011.56 1011.64 1011.68 1011.88 1012.16 1012.27 1012.43 1012.59 1012.67 1012.57 1012.53 1012.59 1012.62 1012.95 1013.14 1013.35 1013.71 1014.21
1004.19 1004.39 1004.98 1005.61 1006.23 1006.76 1007.45 1008.19 1008.69 1008.96 1009.41 1009.63 1009.81 1009.74 1010.05 1010.08 1010.01 1010.12 1010.18 1010.42 1010.59 1010.82 1011.15 1011.05 1011.16 1011.33 1011.51 1011.60 1011.65 1011.65 1012.17 1012.39 1012.59 1012.67 1012.83 1012.94 1013.02 1013.01 1013.02 1013.24 1013.57 1014.16 1014.54
1003.53 1003.98 1004.26 1004.80 1005.35 1005.90 1006.47 1007.09 1007.57 1008.20 1008.66 1008.94 1008.94 1008.97 1009.25 1009.70 1009.82 1009.83 1009.94 1010.21 1010.45 1010.31 1010.27 1010.92 1010.65 1010.76 1011.04 1011.24 1011.44 1011.72 1012.38 1012.30 1012.05 1012.25 1012.77 1012.70 1012.97 1013.38 1013.49 1013.58 1013.66 1013.88 1014.08
1002.90 1003.35 1003.90 1004.28 1004.91 1005.56 1005.96 1006.37 1006.86 1007.38 1007.90 1008.35 1008.47 1008.47 1008.30 1009.02 1009.51 1009.61 1009.63 1009.64 1009.68 1009.99 1010.02 1010.01 1010.27 1010.38 1010.57 1010.93 1011.22 1011.40 1011.62 1011.95 1011.71 1011.77 1012.02 1012.12 1012.43 1012.86 1013.24 1013.31 1013.42 1013.56 1013.78
1002.68 1003.04 1003.60 1004.01 1004.48 1005.05 1005.74 1006.16 1006.54 1006.92 1007.39 1007.75 1007.99 1008.22 1008.45 1008.70 1009.06 1009.25 1009.24 1009.11 1009.23 1009.65 1010.06 1010.31 1010.41 1010.68 1010.85 1010.96 1010.84 1010.89 1011.11 1011.17 1011.08 1011.20 1011.42 1011.68 1012.06 1012.50 1012.69 1012.76 1013.03 1013.30 1013.56
1002.75 1002.98 1003.55 1004.05 1004.39 1004.92 1005.37 1005.82 1006.19 1006.54 1007.05 1007.53 1007.84 1008.06 1008.28 1008.57 1008.80 1008.81 1008.71 1009.04 1009.52 1009.99 1010.38 1010.61 1010.85 1011.01 1011.06 1011.26 1011.13 1010.98 1010.87 1010.88 1010.88 1010.96 1011.09 1011.33 1011.62 1011.82 1012.06 1012.45 1012.67 1012.93 1013.20
1003.22 1003.52 1003.91 1004.40 1004.77 1005.25 1005.63 1005.95 1006.27 1006.68 1007.12 1007.57 1007.93 1008.08 1008.22 1008.44 1008.66 1008.91 1009.14 1009.40 1010.01 1010.42 1010.69 1011.02 1011.24 1011.29 1011.41 1011.35 1011.35 1011.15 1010.96 1010.86 1010.85 1011.02 1011.20 1011.39 1011.48 1011.53 1011.75 1012.07 1012.41 1012.71 1012.96
1004.47 1004.52 1004.80 1004.96 1005.27 1005.60 1005.92 1006.28 1006.61 1006.99 1007.36 1007.74 1008.13 1008.48 1008.61 1009.02 1009.39 1009.78 1010.07 1010.17 1010.56 1011.09 1011.21 1011.31 1011.41 1011.45 1011.35 1011.32 1011.34 1011.15 1011.15 1011.08 1011.13 1011.13 1011.21 1011.26 1011.40 1011.61 1011.83 1012.10 1012.41 1012.71 1013.03
Wind_Speed
3 4 5 5 6 6 7 9 10 12 12 12 12 12 13 13 13 13 14 15 16 14 13 16 16 14 10 8 9 11 12 12 12 7 2 2 3 3 3 4 4 3 3
3 4 5 6 6 7 8 10 10 11 11 11 12 13 13 13 13 13 15 14 15 15 15 16 15 12 13 11 9 13 14 8 7 16 3 1 1 2 1 5 3 3 3
2 4 5 6 6 6 6 9 9 9 10 11 11 11 12 12 13 13 14 15 15 14 15 13 13 15 15 10 14 12 10 12 12 6 4 1 2 1 2 4 3 4 3
3 4 5 5 6 7 7 8 9 9 9 9 10 10 11 12 12 13 12 13 12 11 12 12 12 12 13 13 9 12 13 8 5 2 2 3 2 3 1 3 4 4 4
1 3 5 6 6 6 6 7 9 9 8 8 10 11 11 10 8 12 13 11 8 8 10 10 10 11 16 12 8 10 11 2 3 4 2 1 1 2 2 2 3 3 4
1 5 5 4 6 6 6 7 8 9 8 9 11 12 11 8 21 22 17 2 5 6 8 9 10 10 13 17 16 17 11 4 7 1 3 4 4 3 4 6 6 4 2
3 4 4 3 6 6 6 7 8 10 8 9 12 13 12 11 22 21 20 5 3 5 7 8 7 7 9 11 14 19 17 15 16 7 5 6 6 8 9 6 5 4 2
3 5 4 2 4 5 4 5 7 8 8 8 10 12 13 11 22 19 17 8 6 5 5 6 8 8 8 9 9 3 2 0 3 5 8 5 3 7 6 6 9 10 8
5 5 5 1 4 4 5 4 4 5 5 6 7 10 13 13 24 21 14 8 8 9 9 9 7 4 4 12 7 7 6 6 8 10 12 13 17 20 18 12 10 12 4
6 6 5 2 2 4 6 4 3 3 4 5 6 4 8 11 22 24 16 7 9 8 10 11 17 12 12 10 6 6 9 6 7 12 12 15 14 14 13 7 10 10 7
5 5 4 3 3 3 5 3 3 4 4 5 6 6 5 8 12 23 23 10 8 7 8 9 9 20 20 21 17 8 7 7 13 11 9 9 9 9 8 8 7 6 4
6 5 4 4 2 0 3 4 3 3 4 5 5 5 5 6 15 18 20 20 16 8 9 8 9 21 21 21 14 19 18 12 8 8 9 8 8 7 7 8 10 10 10
6 6 4 4 3 3 2 2 3 3 2 3 3 4 5 6 5 16 17 16 16 8 7 12 16 17 18 16 21 20 12 7 7 8 7 7 6 5 5 8 11 11 14
8 6 5 6 5 4 2 1 1 1 2 2 2 3 3 3 4 5 5 5 9 7 9 5 12 14 18 13 9 11 8 7 6 7 7 5 3 3 7 4 5 4 7
8 7 6 5 4 4 3 4 2 2 3 2 2 1 1 3 4 9 7 4 3 6 4 4 6 7 8 7 7 7 6 6 7 5 5 5 5 4 4 2 1 2 4
9 7 7 6 4 4 4 1 2 4 2 1 2 1 2 1 5 9 11 13 10 9 5 4 4 4 5 3 4 4 5 5 4 4 4 3 3 4 3 3 3 3 6
12 9 7 8 6 6 4 5 4 3 5 5 4 3 2 3 4 6 9 8 13 7 4 3 2 3 2 2 3 2 2 2 1 4 3 4 4 3 3 3 4 4 4
12 11 9 9 8 7 6 5 4 4 3 3 8 6 3 3 2 3 7 4 4 5 3 1 1 1 1 2 2 1 1 2 3 3 4 3 3 4 3 2 2 4 4
11 9 9 8 8 8 7 5 5 4 4 3 1 4 5 7 4 2 1 2 2 1 1 1 1 0 0 2 2 2 3 2 1 2 2 3 3 3 2 3 3 4 5
11 13 10 8 8 8 7 6 5 5 4 4 4 4 2 2 0 2 1 2 2 2 1 2 2 1 1 1 1 2 2 2 1 2 1 1 0 2 2 3 3 3 2
7 8 11 8 9 9 8 9 7 5 5 5 5 4 10 4 4 3 3 2 2 2 2 1 1 1 1 2 2 2 1 2 3 3 3 3 3 2 1 2 3 3 3
7 7 8 9 6 7 8 7 7 7 5 5 3 4 13 3 3 2 2 3 3 2 0 1 1 1 1 2 2 2 2 3 2 3 3 3 4 3 3 2 3 2 2
3 5 6 3 4 6 4 4 6 6 5 5 4 3 2 3 3 3 3 2 3 4 3 2 1 2 1 1 1 1 0 2 3 3 3 3 3 3 3 3 3 2 3
3 5 5 4 5 5 5 5 5 5 4 3 4 3 3 3 3 3 1 2 5 4 4 3 3 3 2 3 3 2 1 1 1 0 2 3 3 4 3 3 4 5 4
3 3 4 3 3 3 4 4 4 4 3 3 2 2 3 3 4 4 4 5 4 4 4 3 2 3 2 1 2 3 3 4 2 3 1 1 2 3 3 2 2 2 2
5 5 4 3 3 3 3 3 3 3 3 3 4 5 5 6 5 5 4 5 5 4 4 3 3 4 4 3 2 1 3 4 3 4 2 1 2 1 1 2 3 2 3
Wind_Direction
334 335 331 311 307 315 310 311 307 306 301 297 296 293 287 280 275 268 262 263 257 255 254 251 249 253 248 257 267 254 257 254 273 270 233 195 303 338 20 65 357 357 335
336 345 325 312 312 304 303 305 309 306 304 296 291 287 283 280 276 269 265 261 257 251 252 242 244 250 245 246 246 271 251 268 290 240 151 288 331 335 51 63 6 10 348
357 353 318 304 300 292 289 308 313 311 302 295 295 296 299 293 286 277 270 263 254 246 256 236 237 248 249 249 247 242 268 234 260 234 205 144 134 286 144 74 70 42 355
18 334 305 291 294 294 296 307 312 301 303 309 315 308 300 298 286 281 270 262 250 243 246 239 244 246 249 248 259 231 247 250 229 184 225 158 161 172 153 132 85 31 15
70 291 278 279 286 291 301 318 307 305 314 326 326 319 319 305 304 305 294 256 241 243 252 252 243 241 244 245 251 257 252 210 206 197 191 111 155 116 127 107 106 105 22
205 260 274 304 301 313 317 317 319 320 322 346 341 330 329 331 342 347 345 156 228 239 250 249 247 235 241 243 255 268 264 244 269 203 185 197 174 146 143 147 142 144 121
221 267 278 316 319 325 320 322 341 336 334 354 357 343 343 342 2 4 8 353 281 262 256 251 241 234 238 248 236 241 251 250 236 230 225 212 174 169 142 143 137 94 123
233 257 264 342 310 312 320 314 342 346 352 356 358 352 347 354 9 13 13 0 360 350 324 293 256 242 228 229 239 179 124 343 254 196 219 179 154 138 135 130 120 103 86
227 237 242 151 297 305 314 305 302 325 328 347 359 359 356 350 16 21 17 5 9 12 10 12 1 2 313 222 146 123 92 51 78 112 111 124 133 127 125 116 129 126 107
215 219 228 180 266 295 287 296 276 299 302 326 333 335 357 358 10 23 24 11 19 16 25 26 31 38 50 59 72 100 93 63 97 88 83 82 78 103 101 100 139 133 125
186 178 224 209 235 248 294 290 302 311 335 346 344 337 348 352 6 24 30 20 16 17 27 31 38 60 65 67 66 60 71 81 77 76 76 66 59 50 48 61 78 118 119
179 179 220 222 221 323 293 304 325 346 0 348 347 349 356 356 13 21 26 31 32 31 28 20 31 56 64 68 69 75 73 64 65 69 66 58 63 57 55 57 61 63 52
176 196 193 215 208 212 194 304 326 349 24 352 356 354 349 354 356 23 27 30 36 39 35 51 55 53 53 53 58 57 50 55 66 73 74 67 65 78 87 74 69 76 69
189 197 195 197 197 191 240 206 156 23 356 10 9 355 333 347 350 357 11 2 14 28 21 8 51 58 59 53 50 48 49 57 74 90 94 91 61 60 68 58 87 86 75
198 183 198 199 201 193 180 177 193 236 165 180 243 231 38 346 354 14 13 355 355 28 32 23 33 28 35 32 39 38 42 53 67 62 81 81 68 70 69 44 84 66 93
197 197 189 183 190 190 180 212 226 176 221 271 350 112 276 309 20 16 17 23 30 40 40 32 28 36 55 35 49 52 46 49 49 60 55 56 72 74 72 24 47 79 111
200 195 186 178 180 189 187 183 189 269 240 249 253 299 316 330 350 8 2 11 30 46 74 51 71 44 25 46 69 69 92 351 87 86 93 86 86 68 66 51 59 71 65
204 190 188 185 183 184 192 191 174 175 205 252 242 238 252 278 277 334 351 33 25 14 53 57 57 84 98 87 60 57 58 67 84 105 101 117 127 131 113 104 100 121 118
198 199 191 178 180 181 182 185 185 182 191 192 173 233 243 242 259 223 47 118 157 167 163 110 210 207 12 105 116 122 135 119 80 91 123 131 143 126 107 113 109 97 113
206 202 188 183 179 177 176 180 184 192 189 197 202 217 185 82 354 259 200 157 159 178 213 168 157 150 146 161 153 136 105 82 86 97 139 102 81 97 127 133 134 129 150
201 200 186 178 181 183 182 189 193 185 193 197 206 202 192 168 213 212 208 223 221 201 178 231 291 223 210 212 170 148 187 205 181 176 168 173 163 145 161 157 151 152 147
190 189 187 192 181 182 192 188 187 192 191 192 202 206 215 171 188 202 205 209 198 212 148 153 185 194 159 172 199 227 194 213 216 181 171 167 161 162 161 151 162 163 150
165 165 175 163 165 160 160 178 178 179 182 188 183 187 182 179 186 201 229 204 157 146 120 138 138 58 37 43 44 123 76 266 236 180 183 172 170 174 173 167 169 160 174
176 157 153 159 153 156 164 169 177 169 165 172 177 179 176 185 198 199 189 98 95 88 75 62 55 52 39 18 4 2 47 43 31 53 171 180 198 208 199 198 197 201 195
56 85 120 133 126 133 132 144 156 160 154 140 149 158 176 167 105 89 84 80 85 96 93 83 70 73 71 48 347 329 321 322 280 267 250 202 231 193 184 164 145 139 132
47 63 73 82 88 97 109 118 128 124 122 104 85 67 72 73 73 73 69 79 89 87 94 85 79 76 70 73 354 268 256 250 236 236 233 191 172 158 123 137 159 133 144